Other Surface Observations
Issued by NWS Upton, NY

Home | Current Version | Previous Version | Text Only | Print | Product List | Glossary On
Versions: 1 2 3 4 5 6 7 8 9 10 11 12 13 14 15 16 17 18 19 20 21 22 23 24 25 26 27 28 29 30 31 32 33 34 35 36 37 38 39 40 41 42 43 44 45 46 47 48 49 50
000
SXUS51 KOKX 251657
OSOOKX
New York City Metropolitan Area Weather Roundup
National Weather Service New York NY
1200 PM EST SUN FEB 25 2018

CITY           SKY/WX    TMP DP  RH WIND       PRES   REMARKS
Central Park   LGT RAIN  41  39  93 NE10      30.02F
LaGuardia Arpt LGT RAIN  41  38  89 NE17      30.00F FOG
Kennedy Intl   LGT RAIN  44  43  96 NE12      30.00F FOG
Newark Liberty LGT RAIN  41  40  96 NE15      29.97F
Teterboro Arpt LGT RAIN  42  39  89 NE16      29.98F FOG
Bronx Bot Gard   N/A     39  37  93 E6        30.00F WCI  35
Bronx Lehman C   N/A     39  39 100 E12         N/A  WCI  32
Queens College   N/A     39  37  93 NE8         N/A  WCI  34
Breezy Point     N/A     41 N/A N/A NE12G17     N/A
Brooklyn Coll    N/A     41  39  93 N8          N/A
Staten Island    N/A     41  41 100 N6          N/A

>>>>>>>>>>>>>>>>>>>>>>>>>>>>>>>>> KEY <<<<<<<<<<<<<<<<<<<<<<<<<<<<<<<
> SKY/WX - Sky Condition/Present    : R : WCI - Wind Chill Index    <
>          Weather                  : E : VSB - Visibility in Miles <
> TMP    - Temperature in Deg F     : M : HX  - Heat Index          <
> DP     - Dew Point Temperature    : A : TC  - Temperature in      <
> RH     - Relative Humidity        : R :       Celsius             <
> WIND   - Direction/Speed (mph)    : K : VRB - Variable Wind Dir   <
> PRES   - Pressure (in Hg)         : S :                           <
>>>>>>>>>>>>>>>>>>>>>>>>>>>>>>>>> KEY <<<<<<<<<<<<<<<<<<<<<<<<<<<<<<<




USA.gov is the U.S. government's official web portal to all federal, state and local government web resources and services.